User: anonymous   Login
Location: Unspecified
(0.0000°N, 0.0000°E)
Time: 23:20:01
(UTC+00:00)
Language:

Oscar 16 - Orbit

View from above orbital plane
View from above orbital plane
View from above satellite
View from above satellite

Ground track
Ground track

The orbit data is extracted from the following two-line orbital elements,

1 20439U 90005D   18051.46015608  .00000026  00000-0  25924-4 0  9991
2 20439  98.6370 354.4676 0011375 145.4791 328.5342 14.32711746466959
Epoch (UTC): 20 February 2018 11:02:37
Eccentricity: 0.0011375
inclination: 98.6370°
perigee height: 774 km
apogee height: 791 km
right ascension of ascending node: 354.4676°
argument of perigee: 145.4791°
revolutions per day: 14.32711746
mean anomaly at epoch: 328.5342°
orbit number at epoch: 46695

The dashed part of the orbit path shows where the satellite is in the earth's shadow,  

DLR